Location: Mountain View
(37.3861°N, 122.0839°W)
Time: 00:53:21
(UTC-07:00)

Hubble Space Telescope - Visible Passes

Search period start: 24 May 2017 00:00
Search period end: 03 June 2017 00:00
Orbit: 538 x 541 km, 28.5° (Epoch: 23 May)

Date Brightness Start Highest point End Pass type
(mag) Time Alt. Az. Time Alt. Az. Time Alt. Az.
28 May 2.8 20:48:58 10° S 20:50:05 11° SSE 20:51:12 10° SE visible
28 May 3.2 22:27:29 10° SW 22:27:51 12° SW 22:27:51 12° SW visible
29 May 2.6 22:17:14 10° SW 22:18:49 18° SSW 22:18:49 18° SSW visible
30 May 2.2 22:07:02 10° SW 22:09:38 22° SSW 22:09:38 22° SSW visible
31 May 2.0 21:56:52 10° SW 22:00:12 24° S 22:00:17 23° S visible
01 Jun 2.0 21:46:45 10° SW 21:50:04 23° S 21:50:50 22° SSE visible
02 Jun 2.2 21:36:39 10° WSW 21:39:55 22° S 21:41:17 19° SSE visible
